Regional Weather Roundup
Issued by NWS Cleveland, OH

Home | Current Version | Previous Version | Graphics & Text | Print | Product List | Glossary On
Versions: 1 2 3 4 5 6 7 8 9 10 11 12 13 14 15 16 17 18 19 20 21 22 23 24 25 26 27 28 29 30 31 32 33 34 35 36 37 38 39 40 41 42 43 44 45 46 47 48 49 50
000
ASUS41 KCLE 191900
RWRCLE
OHIO REGIONAL WEATHER ROUNDUP
NATIONAL WEATHER SERVICE WILMINGTON, OH
300 PM EDT SAT APR 19 2014

NOTE: "FAIR" INDICATES FEW OR NO CLOUDS BELOW 12,000 FEET WITH NO
SIGNIFICANT WEATHER AND/OR OBSTRUCTIONS TO VISIBILITY.

OHZ001>008-015>018-024>027-034-035-043-044-192000-
   NORTHWEST OHIO

CITY           SKY/WX    TMP DP  RH WIND       PRES   REMARKS
DEFIANCE       SUNNY     57  31  37 E14       30.39F
FINDLAY        SUNNY     56  31  38 N16G23    30.37F
TOLEDO EXPRESS SUNNY     52  27  38 NE17      30.41S
TOLEDO METCALF SUNNY     51  22  31 E16G22    30.42F
LIMA           SUNNY     59  36  42 NE10      30.35F
$$

OHZ009>014-019>023-028>033-038-089-192000-
   NORTHEAST OHIO

CITY           SKY/WX    TMP DP  RH WIND       PRES   REMARKS
CLE-HOPKINS    SUNNY     50  31  48 N17       30.42S
CLE-LAKEFRONT  SUNNY     44  37  76 NE17G24   30.39F
CUY CO. ARPT   SUNNY     52  30  43 NE18      30.39S
LORAIN-ELYRIA  SUNNY     53  30  41 NE15      30.39S
ASHTABULA      SUNNY     49  26  41 NE12G22   30.39S
AKRON-CANTON   PTSUNNY   56  22  26 NE12      30.34F
WOOSTER        NOT AVBL
MANSFIELD      SUNNY     57  28  33 N15       30.34F
YOUNGSTOWN     MOSUNNY   57  23  26 VRB6G18   30.34F
$$

OHZ042-051>053-060>062-070>072-077>081-192000-
  SOUTHWEST OHIO

CITY           SKY/WX    TMP DP  RH WIND       PRES   REMARKS
CINC-COVINGTON SUNNY     69  37  30 NE12G22   30.26F
CINC-LUNKEN    SUNNY     68  41  37 NE10      30.27F
HAMILTON       SUNNY     68  41  37 NE13G20   30.29F
DAYTON         NOT AVBL
WRIGHT-PAT AFB SUNNY     64  36  36 N15       30.30F
DAYTON GENERAL SUNNY     64  38  38 E9G21     30.28F
WILMINGTON     SUNNY     64  35  34 E10       30.28F
$$

OHZ036-037-039>041-045>050-054>059-063>069-073>076-082>088-192000-
  CENTRAL AND SOUTHEAST OHIO

CITY           SKY/WX    TMP DP  RH WIND       PRES   REMARKS
COLUMBUS       SUNNY     65  36  34 NE16      30.31F
OSU AIRPORT    SUNNY     62  35  36 N9        30.31F
BOLTON FIELD   SUNNY     63  37  39 NE13G21   30.31F
RICKENBACK AFB NOT AVBL
NEWARK         SUNNY     64  35  34 E12       30.30F
MARION         SUNNY     58  34  40 E12G21    30.34F
LANCASTER      SUNNY     66  36  32 N9        30.30S
ZANESVILLE     SUNNY     64  34  32 N10G23    30.30S
NEW PHILLY     SUNNY     61  22  22 N9        30.33F
$$



USA.gov is the U.S. government's official web portal to all federal, state and local government web resources and services.